Погода в Ленинском

Россия / Еврейская автономная область     47°56′08″N   132°37′18″E
темп.,
°C
ветер,
м/с
пор.,
м/с
влажн.,
%
обл.,
%
осадки,
мм/ч
давл.,
гПа
погр.,
м
8 августа, пн
пн801:00+19ю2699100 4.4 997305
04:00+19ю249999 6.9 997282
07:00+19юз2399100 0.4 996144
10:00+21сз478944 2.7 997610
13:00+25зсз68530 0.1 9971660
16:00+25зюз69540 0.1 9972073
19:00+22юз4106833 0.0 997401
22:00+17сз33750 0.0 99941
9 августа, вт
вт901:00+16юз35725 0.0 99967
04:00+14юз34760 0.0 99968
07:00+14ююз3107933 0.0 998268
10:00+19юз59685 0.0 998635
13:00+23зюз7115768 0.0 9961418
16:00+25юз7135512 0.0 9952943
19:00+21зюз4116668 0.0 995441
22:00+17зсз226897 0.0 99722
10 августа, ср
ср1001:00+16юз237392 0.0 99744
04:00+13ююз35805 0.0 99682
07:00+13ююз39885 0.2 995222
10:00+19зюз5968100 0.2 996660
13:00+20зюз7106288 0.3 9961727
16:00+16сз3875100 0.8 998455
19:00+15з31080100 0.2 999628
22:00+13з379676 0.8 1000302
11 августа, чт
чт1101:00+11зюз369711 0.0 1000134
04:00+10з23975 0.0 100165
07:00+11зюз1194100 0.0 100132
10:00+16зюз2381100 0.0 1001380
13:00+21з356242 0.0 10011409
16:00+22з355976 0.2 10001530
19:00+19зюз36781 0.5 1001193
22:00+15зюз228820 0.5 100127
12 августа, пт
пт1201:00+14з128912 0.0 100111
04:00+13юз119290 0.0 100110
07:00+13зсз119030 0.0 100211
10:00+20зсз117011 0.0 1002463
13:00+22зюз22625 0.2 10021172
16:00+23з3358100 1.3 10021405
19:00+20зюз2382100 1.6 100362
22:00+16юз11861 1.6 100411